EDT,Max TemperatureF,Mean TemperatureF,Min TemperatureF,Max Dew PointF,MeanDew PointF,Min DewpointF,Max Humidity, Mean Humidity, Min Humidity, Max Sea Level PressureIn, Mean Sea Level PressureIn, Min Sea Level PressureIn, Max VisibilityMiles, Mean VisibilityMiles, Min VisibilityMiles, Max Wind SpeedMPH, Mean Wind SpeedMPH, Max Gust SpeedMPH,PrecipitationIn, CloudCover, Events, WindDirDegrees
2013-6-1,88,82,76,76,73,72,82,74,65,30.04,30.00,29.94,10,6,0,16,3,26,2.19,6,Fog-Rain-Thunderstorm,116
2013-6-2,87,81,75,74,72,70,87,76,65,30.01,29.98,29.93,10,8,0,16,3,24,0.37,3,Rain,173
2013-6-3,84,80,75,75,72,70,88,81,74,30.03,29.97,29.92,10,6,0,17,3,29,2.84,6,Rain-Thunderstorm,101
2013-6-4,83,79,75,75,73,71,88,81,74,30.03,29.98,29.96,10,10,10,14,7,18,0.05,3,Rain,84
2013-6-5,86,81,75,77,74,70,82,76,70,29.99,29.92,29.86,10,8,1,20,8,31,1.49,3,Rain-Thunderstorm,114
2013-6-6,90,83,76,77,74,70,85,77,68,29.90,29.86,29.80,10,8,0,22,10,33,0.59,4,Rain-Thunderstorm,191
2013-6-7,91,83,75,78,74,71,79,75,70,30.01,29.94,29.87,10,8,0,16,7,26,0.79,3,Rain-Thunderstorm,224
2013-6-8,91,86,80,78,75,74,79,72,64,30.09,30.03,29.98,10,10,10,10,7,16,0.00,1,,118
2013-6-9,90,85,80,75,73,71,79,69,59,30.08,30.04,30.01,10,10,10,15,9,21,0.04,1,,102
2013-6-10,90,87,83,75,74,72,74,67,59,30.07,30.03,29.98,10,10,10,14,8,18,T,1,,93
2013-6-11,91,87,82,76,74,73,74,65,56,30.07,30.03,30.00,10,10,10,8,4,29,0.00,1,,123
2013-6-12,91,85,78,75,74,70,79,69,59,30.08,30.05,30.00,10,9,1,20,5,28,0.64,3,Rain-Thunderstorm,166
2013-6-13,90,84,78,75,72,70,79,69,59,30.06,30.01,29.97,10,10,8,10,4,14,0.00,0,,166
2013-6-14,91,85,79,75,72,68,79,68,56,30.00,29.96,29.93,10,10,6,8,4,13,0.01,2,Rain-Thunderstorm,207
2013-6-15,90,86,81,73,72,70,79,68,56,30.05,30.01,29.95,10,10,9,8,3,13,0.00,3,,46
2013-6-16,92,86,80,75,73,71,74,65,56,30.08,30.05,30.01,10,10,10,14,7,18,0.00,1,,99
2013-6-17,91,88,84,76,74,73,70,65,60,30.06,30.04,30.00,10,10,9,16,8,20,T,2,Rain,105
2013-6-18,92,88,84,77,75,73,74,67,60,30.06,30.03,29.99,10,10,10,12,7,20,T,1,,119
2013-6-19,92,88,84,76,74,73,74,65,56,30.04,30.02,29.98,10,10,6,12,6,20,0.01,3,Rain,125
2013-6-20,93,89,85,74,73,71,65,61,56,30.09,30.05,30.01,10,10,10,12,7,17,0.00,2,,107
2013-6-21,92,88,84,73,71,69,70,61,52,30.11,30.07,30.03,10,10,10,12,7,17,0.00,1,,106
2013-6-22,92,87,81,74,72,69,79,66,52,30.09,30.06,30.03,10,10,10,12,7,20,0.03,1,,95
2013-6-23,89,86,82,75,72,70,74,67,59,30.11,30.07,30.03,10,10,10,14,8,22,0.04,2,Rain,108
2013-6-24,92,86,79,74,72,70,74,65,55,30.14,30.09,30.06,10,10,5,18,8,24,0.09,2,Rain,95
2013-6-25,92,88,83,74,73,71,74,65,56,30.10,30.06,30.03,10,10,10,13,7,18,0.00,1,,93
2013-6-26,91,87,82,75,73,71,70,65,59,30.07,30.03,30.00,10,10,7,12,7,18,0.05,2,Rain-Thunderstorm,119
2013-6-27,92,88,84,75,73,71,70,65,59,30.04,30.01,29.97,10,10,10,14,6,21,0.00,1,Thunderstorm,110
2013-6-28,93,88,82,74,73,70,74,65,56,29.99,29.95,29.88,10,10,10,7,4,14,0.00,1,,132
2013-6-29,93,88,82,75,73,69,74,65,56,29.92,29.90,29.87,10,10,7,12,6,21,0.00,2,,181
2013-6-30,92,87,81,74,73,71,74,65,56,29.96,29.91,29.88,10,10,9,18,10,30,0.02,4,Rain,188